Location: Devore Heights
(34.2372°N, 117.4156°W)
Time: 02:16:14
(UTC+00:00)

SR - Pass Details

Date: 15 September 2024
Orbit: 578 x 855 km, 66.7° (Epoch: 02 October)

Event Time Altitude Azimuth Distance (km) Brightness Sun altitude
Rises 07:10:19 0° 319° (NW) 3,013 - -52.1°
Reaches altitude 10° 07:12:50 10° 307° (NW) 2,142 - -52.2°
Maximum altitude 07:16:54 27° 250° (WSW) 1,374 - -52.4°
Drops below altitude 10° 07:21:14 10° 194° (SSW) 2,287 - -52.6°
Sets 07:24:02 0° 182° (S) 3,258 - -52.6°
